This is the latest recevied weather packets stored in our database for station/object N3TJJ-2. If no packets are shown the sender has not sent any weather packets the latest 10 day(s).
| Time | Temp. | Humidity | Pressure | Rain* | Wind** | Luminosity | Snow |
|---|---|---|---|---|---|---|---|
| 1777574471 | 16.11° C | 61% | 1008.5 hPa | 0 mm | - | - | - |
| 1777574123 | 16.11° C | 60% | 1008.5 hPa | 0 mm | - | - | - |
| 1777573750 | 16.11° C | 60% | 1008.7 hPa | 0 mm | - | - | - |
| 1777573391 | 15.56° C | 65% | 1008.6 hPa | 0 mm | - | - | - |
| 1777573030 | 15.56° C | 66% | 1008.6 hPa | 0 mm | - | - | - |
| 1777572670 | 15.56° C | 65% | 1008.7 hPa | 0 mm | - | - | - |
| 1777572383 | 15.56° C | 64% | 1008.7 hPa | 0 mm | - | - | - |
| 1777572350 | 15.56° C | 64% | 1008.7 hPa | 0 mm | - | - | - |
| 1777571950 | 15.56° C | 64% | 1008.6 hPa | 0 mm | - | - | - |
| 1777571590 | 15.56° C | 66% | 1008.7 hPa | 0 mm | - | - | - |
| 1777571231 | 15.56° C | 65% | 1008.6 hPa | 0 mm | - | - | - |
| 1777570870 | 15.56° C | 69% | 1008.7 hPa | 0 mm | - | - | - |
| 1777570538 | 15.56° C | 68% | 1008.7 hPa | 0 mm | - | - | - |
| 1777570160 | 15.56° C | 69% | 1008.8 hPa | 0 mm | - | - | - |
| 1777569800 | 15.56° C | 68% | 1008.9 hPa | 0 mm | - | - | - |
| 1777569430 | 15° C | 70% | 1009 hPa | 0 mm | - | - | - |
| 1777569070 | 15° C | 71% | 1009 hPa | 0 mm | - | - | - |
| 1777568723 | 15.56° C | 70% | 1009 hPa | 0 mm | - | - | - |
| 1777568365 | 16.11° C | 71% | 1009 hPa | 0 mm | - | - | - |
| 1777567990 | 15.56° C | 72% | 1008.9 hPa | 0 mm | - | - | - |
| 1777567632 | 15.56° C | 73% | 1009.1 hPa | 0 mm | - | - | - |
| 1777567284 | 15° C | 74% | 1009.3 hPa | 0 mm | - | - | - |
| 1777566913 | 15° C | 75% | 1009.2 hPa | 0 mm | - | - | - |
| 1777566560 | 15° C | 76% | 1009.2 hPa | 0 mm | - | - | - |
| 1777566192 | 15° C | 76% | 1009.3 hPa | 0 mm | - | - | - |
* Rain latest hour (hover to see other rain measurements)
** Current wind speed in m/s (hover to see current wind gust speed)